"Period start","avg(HW err(1)/warn(2) (#))","avg(Visibility (m))","avg(Weather code (#))","avg(Precip intensity (mm/h))","min(HW err(1)/warn(2) (#))","max(HW err(1)/warn(2) (#))","std(HW err(1)/warn(2) (#))","med(HW err(1)/warn(2) (#))","min(Visibility (m))","max(Visibility (m))","std(Visibility (m))","med(Visibility (m))","min(Weather code (#))","max(Weather code (#))","std(Weather code (#))","med(Weather code (#))","min(Precip intensity (mm/h))","max(Precip intensity (mm/h))","std(Precip intensity (mm/h))","med(Precip intensity (mm/h))"
2014-10-11 00:00:00,2,32767,0,0.00,2,2,0,2,27550,39758,3842,32227,0,0,0,0,0.00,0.00,0.00,0.00
2014-10-11 00:10:00,2,28301,0,0.00,2,2,0,2,24407,33400,2812,28047,0,0,0,0,0.00,0.00,0.00,0.00
2014-10-11 00:20:00,2,25866,0,0.00,2,2,0,2,21449,29703,2603,26050,0,0,0,0,0.00,0.00,0.00,0.00
2014-10-11 00:30:00,2,26121,0,0.00,2,2,0,2,21785,29276,2626,26880,0,0,0,0,0.00,0.00,0.00,0.00
2014-10-11 00:40:00,2,24952,0,0.00,2,2,0,2,19881,31563,3205,25247,0,0,0,0,0.00,0.00,0.00,0.00
2014-10-11 00:50:00,2,26825,0,0.00,2,2,0,2,23494,31985,2758,25618,0,0,0,0,0.00,0.00,0.00,0.00
2014-10-11 01:00:00,2,29976,0,0.00,2,2,0,2,24465,34865,3437,29192,0,0,0,0,0.00,0.00,0.00,0.00
2014-10-11 01:10:00,2,30170,0,0.00,2,2,0,2,24921,34075,3344,31180,0,0,0,0,0.00,0.00,0.00,0.00
2014-10-11 01:20:00,2,29511,0,0.00,2,2,0,2,21400,40578,5353,29022,0,0,0,0,0.00,0.00,0.00,0.00
2014-10-11 01:30:00,2,28519,0,0.00,2,2,0,2,23085,34917,3350,29014,0,0,0,0,0.00,0.00,0.00,0.00
2014-10-11 01:40:00,2,29832,0,0.00,2,2,0,2,25951,34889,2985,29904,0,0,0,0,0.00,0.00,0.00,0.00
2014-10-11 01:50:00,2,35339,0,0.00,2,2,0,2,30047,40503,3278,35570,0,0,0,0,0.00,0.00,0.00,0.00
2014-10-11 02:00:00,2,31044,0,0.00,2,2,0,2,27755,33823,1938,31525,0,0,0,0,0.00,0.00,0.00,0.00
2014-10-11 02:10:00,2,33084,0,0.00,2,2,0,2,26821,42006,4256,33554,0,0,0,0,0.00,0.00,0.00,0.00
2014-10-11 02:20:00,2,34105,0,0.00,2,2,0,2,26557,43281,4891,33335,0,0,0,0,0.00,0.00,0.00,0.00
2014-10-11 02:30:00,2,31640,0,0.00,2,2,0,2,27036,37598,3490,31390,0,0,0,0,0.00,0.00,0.00,0.00
2014-10-11 02:40:00,2,29948,0,0.00,2,2,0,2,20369,40158,5031,29247,0,0,0,0,0.00,0.00,0.00,0.00
2014-10-11 02:50:00,2,30786,0,0.00,2,2,0,2,23766,40592,4830,30104,0,0,0,0,0.00,0.00,0.00,0.00
2014-10-11 03:00:00,2,33269,0,0.00,2,2,0,2,27562,37671,3213,33858,0,0,0,0,0.00,0.00,0.00,0.00
2014-10-11 03:10:00,2,38406,0,0.00,2,2,0,2,36015,46376,2891,38212,0,0,0,0,0.00,0.00,0.00,0.00
2014-10-11 03:20:00,2,41410,0,0.00,2,2,0,2,38233,46627,2801,40460,0,0,0,0,0.00,0.00,0.00,0.00
2014-10-11 03:30:00,2,34440,0,0.00,2,2,0,2,26346,44297,5550,33709,0,0,0,0,0.00,0.00,0.00,0.00
2014-10-11 03:40:00,2,37547,0,0.00,2,2,0,2,28115,47238,5947,36208,0,0,0,0,0.00,0.00,0.00,0.00
2014-10-11 03:50:00,2,38097,0,0.00,2,2,0,2,34837,42309,2550,38713,0,0,0,0,0.00,0.00,0.00,0.00
2014-10-11 04:00:00,2,34343,0,0.00,2,2,0,2,30217,38668,2817,34196,0,0,0,0,0.00,0.00,0.00,0.00
2014-10-11 04:10:00,2,36544,0,0.00,2,2,0,2,31726,42092,3157,36346,0,0,0,0,0.00,0.00,0.00,0.00
2014-10-11 04:20:00,2,33142,0,0.00,2,2,0,2,28174,40018,3607,32072,0,0,0,0,0.00,0.00,0.00,0.00
2014-10-11 04:30:00,2,36560,0,0.00,2,2,0,2,30331,44915,4779,35608,0,0,0,0,0.00,0.00,0.00,0.00
2014-10-11 04:40:00,2,34194,0,0.00,2,2,0,2,25230,39219,3503,34942,0,0,0,0,0.00,0.00,0.00,0.00
2014-10-11 04:50:00,2,36230,0,0.00,2,2,0,2,31011,41467,2851,35798,0,0,0,0,0.00,0.00,0.00,0.00
2014-10-11 05:00:00,2,38942,0,0.00,2,2,0,2,33876,44162,3298,38476,0,0,0,0,0.00,0.00,0.00,0.00
2014-10-11 05:10:00,2,37812,0,0.00,2,2,0,2,34073,43367,2544,37582,0,0,0,0,0.00,0.00,0.00,0.00
2014-10-11 05:20:00,2,38024,0,0.00,2,2,0,2,32548,43887,3412,38056,0,0,0,0,0.00,0.00,0.00,0.00
2014-10-11 05:30:00,2,35552,0,0.00,2,2,0,2,31824,38877,2281,35824,0,0,0,0,0.00,0.00,0.00,0.00
2014-10-11 05:40:00,2,31269,0,0.00,2,2,0,2,28301,35298,2300,31412,0,0,0,0,0.00,0.00,0.00,0.00
2014-10-11 05:50:00,2,37140,0,0.00,2,2,0,2,32212,44212,3309,36525,0,0,0,0,0.00,0.00,0.00,0.00
2014-10-11 06:00:00,2,35580,0,0.00,2,2,0,2,30357,38960,2652,35844,0,0,0,0,0.00,0.00,0.00,0.00
2014-10-11 06:10:00,2,33773,0,0.00,2,2,0,2,28911,39054,3075,34071,0,0,0,0,0.00,0.00,0.00,0.00
2014-10-11 06:20:00,2,28427,4,0.00,2,2,0,2,21315,41044,5540,29131,0,40,12,0,0.00,0.00,0.00,0.00
2014-10-11 06:30:00,2,33478,33,0.00,2,2,0,2,23883,44526,5497,33366,0,77,34,20,0.00,0.00,0.00,0.00
2014-10-11 06:40:00,2,38177,0,0.00,2,2,0,2,33837,41042,2609,39188,0,0,0,0,0.00,0.00,0.00,0.00
2014-10-11 06:50:00,2,36869,0,0.00,2,2,0,2,33162,39802,2020,37046,0,0,0,0,0.00,0.00,0.00,0.00
2014-10-11 07:00:00,2,34343,0,0.00,2,2,0,2,30323,42476,3095,33622,0,0,0,0,0.00,0.00,0.00,0.00
2014-10-11 07:10:00,2,34492,0,0.00,2,2,0,2,31067,36812,1834,34556,0,0,0,0,0.00,0.00,0.00,0.00
2014-10-11 07:20:00,2,33792,0,0.00,2,2,0,2,30703,36272,1769,33930,0,0,0,0,0.00,0.00,0.00,0.00
2014-10-11 07:30:00,2,32619,0,0.00,2,2,0,2,29468,35455,2162,33716,0,0,0,0,0.00,0.00,0.00,0.00
2014-10-11 07:40:00,2,30428,0,0.00,2,2,0,2,27097,33366,2122,30260,0,0,0,0,0.00,0.00,0.00,0.00
2014-10-11 07:50:00,2,23200,15,0.26,2,2,0,2,3143,36415,12489,30682,0,71,24,0,0.00,1.80,0.56,0.00
2014-10-11 08:00:00,2,3308,71,1.74,2,2,0,2,2239,7599,1649,2650,71,71,0,71,0.40,2.60,0.73,1.93
2014-10-11 08:10:00,2,4837,71,1.09,2,2,0,2,2186,7201,1703,5265,71,71,0,71,0.55,2.50,0.58,1.00
2014-10-11 08:20:00,2,13262,71,0.23,2,2,0,2,6898,29164,6337,11612,71,71,0,71,0.00,1.20,0.37,0.05
2014-10-11 08:30:00,2,16845,30,0.30,2,2,0,2,3444,26905,8425,16526,0,71,27,40,0.00,2.35,0.70,0.00
2014-10-11 08:40:00,2,11909,71,0.25,2,2,0,2,6344,19581,4300,11748,71,71,0,71,0.00,0.55,0.21,0.23
2014-10-11 08:50:00,2,23941,51,0.01,2,2,0,2,18348,28981,3539,24022,0,77,33,71,0.00,0.05,0.02,0.00
2014-10-11 09:00:00,2,29242,0,0.00,2,2,0,2,26982,33559,2044,28271,0,0,0,0,0.00,0.00,0.00,0.00
2014-10-11 09:10:00,2,27464,0,0.00,2,2,0,2,22371,31882,3138,28073,0,0,0,0,0.00,0.00,0.00,0.00
2014-10-11 09:20:00,2,34047,0,0.00,2,2,0,2,26414,39895,3972,34658,0,0,0,0,0.00,0.00,0.00,0.00
2014-10-11 09:30:00,2,36744,0,0.00,2,2,0,2,30145,41311,3278,37306,0,0,0,0,0.00,0.00,0.00,0.00
2014-10-11 09:40:00,2,33340,0,0.00,2,2,0,2,29132,39873,2991,33574,0,0,0,0,0.00,0.00,0.00,0.00
2014-10-11 09:50:00,2,38550,0,0.00,2,2,0,2,34518,41746,2479,39092,0,0,0,0,0.00,0.00,0.00,0.00
2014-10-11 10:00:00,2,34248,0,0.00,2,2,0,2,29701,39221,3259,33932,0,0,0,0,0.00,0.00,0.00,0.00
2014-10-11 10:10:00,2,39255,0,0.00,2,2,0,2,31196,45139,4429,39961,0,0,0,0,0.00,0.00,0.00,0.00
2014-10-11 10:20:00,2,38003,0,0.00,2,2,0,2,30945,44817,3398,38049,0,0,0,0,0.00,0.00,0.00,0.00
2014-10-11 10:30:00,2,38201,0,0.00,2,2,0,2,34875,41102,2317,38830,0,0,0,0,0.00,0.00,0.00,0.00
2014-10-11 10:40:00,2,39577,0,0.00,2,2,0,2,32261,46552,5178,39968,0,0,0,0,0.00,0.00,0.00,0.00
2014-10-11 10:50:00,2,37192,0,0.00,2,2,0,2,31321,45067,4686,35178,0,0,0,0,0.00,0.00,0.00,0.00
2014-10-11 11:00:00,2,35592,0,0.00,2,2,0,2,30956,39255,2325,35510,0,0,0,0,0.00,0.00,0.00,0.00
2014-10-11 11:10:00,2,36498,0,0.00,2,2,0,2,27514,43788,4516,37830,0,0,0,0,0.00,0.00,0.00,0.00
2014-10-11 11:20:00,2,28378,0,0.00,2,2,0,2,24380,30675,1936,29298,0,0,0,0,0.00,0.00,0.00,0.00
2014-10-11 11:30:00,2,26015,0,0.00,2,2,0,2,23120,30847,2364,25754,0,0,0,0,0.00,0.00,0.00,0.00
2014-10-11 11:40:00,2,25599,0,0.00,2,2,0,2,21354,31947,2962,25805,0,0,0,0,0.00,0.00,0.00,0.00
2014-10-11 11:50:00,2,24685,0,0.00,2,2,0,2,23340,26666,921,24499,0,0,0,0,0.00,0.00,0.00,0.00
2014-10-11 12:00:00,2,27321,0,0.00,2,2,0,2,25163,30558,1486,26964,0,0,0,0,0.00,0.00,0.00,0.00
2014-10-11 12:10:00,2,27771,0,0.00,2,2,0,2,24919,31156,2178,27424,0,0,0,0,0.00,0.00,0.00,0.00
2014-10-11 12:20:00,2,26829,0,0.00,2,2,0,2,24462,29114,1573,27076,0,0,0,0,0.00,0.00,0.00,0.00
2014-10-11 12:30:00,2,27150,0,0.00,2,2,0,2,23503,30137,2112,27152,0,0,0,0,0.00,0.00,0.00,0.00
2014-10-11 12:40:00,2,32660,0,0.00,2,2,0,2,28652,37457,2967,31962,0,0,0,0,0.00,0.00,0.00,0.00
2014-10-11 12:50:00,2,31532,0,0.00,2,2,0,2,27168,36790,2824,31661,0,0,0,0,0.00,0.00,0.00,0.00
2014-10-11 13:00:00,2,36465,0,0.00,2,2,0,2,31730,41768,2747,36697,0,0,0,0,0.00,0.00,0.00,0.00
2014-10-11 13:10:00,2,41482,0,0.00,2,2,0,2,38870,46386,2202,41486,0,0,0,0,0.00,0.00,0.00,0.00
2014-10-11 13:20:00,2,37212,0,0.00,2,2,0,2,32712,43774,3159,37443,0,0,0,0,0.00,0.00,0.00,0.00
2014-10-11 13:30:00,2,31944,0,0.00,2,2,0,2,28861,35667,2277,31696,0,0,0,0,0.00,0.00,0.00,0.00
2014-10-11 13:40:00,2,33953,0,0.00,2,2,0,2,29650,38507,2850,32995,0,0,0,0,0.00,0.00,0.00,0.00
2014-10-11 13:50:00,2,39637,0,0.00,2,2,0,2,34216,45803,3205,39723,0,0,0,0,0.00,0.00,0.00,0.00
2014-10-11 14:00:00,2,35339,0,0.00,2,2,0,2,29617,39468,2561,35568,0,0,0,0,0.00,0.00,0.00,0.00
2014-10-11 14:10:00,2,33340,0,0.00,2,2,0,2,30285,37059,2104,33229,0,0,0,0,0.00,0.00,0.00,0.00
2014-10-11 14:20:00,2,26981,0,0.00,2,2,0,2,23377,33505,3465,26661,0,0,0,0,0.00,0.00,0.00,0.00
2014-10-11 14:30:00,2,30658,0,0.00,2,2,0,2,23008,34822,3993,32098,0,0,0,0,0.00,0.00,0.00,0.00
2014-10-11 14:40:00,2,32305,0,0.00,2,2,0,2,27424,38011,3170,31820,0,0,0,0,0.00,0.00,0.00,0.00
2014-10-11 14:50:00,2,32818,0,0.00,2,2,0,2,27568,37004,2875,32478,0,0,0,0,0.00,0.00,0.00,0.00
2014-10-11 15:00:00,2,34922,0,0.00,2,2,0,2,29079,41962,3523,33768,0,0,0,0,0.00,0.00,0.00,0.00
2014-10-11 15:10:00,2,39017,0,0.00,2,2,0,2,31496,45587,5152,40775,0,0,0,0,0.00,0.00,0.00,0.00
2014-10-11 15:20:00,2,39883,0,0.00,2,2,0,2,32329,46070,4229,39705,0,0,0,0,0.00,0.00,0.00,0.00
2014-10-11 15:30:00,2,40191,0,0.00,2,2,0,2,31244,48654,4598,40339,0,0,0,0,0.00,0.00,0.00,0.00
2014-10-11 15:40:00,2,43735,0,0.00,2,2,0,2,34816,50000,4551,44015,0,0,0,0,0.00,0.00,0.00,0.00
2014-10-11 15:50:00,2,46777,0,0.00,2,2,0,2,43313,50000,2664,47036,0,0,0,0,0.00,0.00,0.00,0.00
2014-10-11 16:00:00,2,45121,0,0.00,2,2,0,2,40148,49929,2707,45214,0,0,0,0,0.00,0.00,0.00,0.00
2014-10-11 16:10:00,2,47172,0,0.00,2,2,0,2,40195,50000,2801,48210,0,0,0,0,0.00,0.00,0.00,0.00
2014-10-11 16:20:00,2,46779,0,0.00,2,2,0,2,41415,50000,3178,47768,0,0,0,0,0.00,0.00,0.00,0.00
2014-10-11 16:30:00,2,45876,0,0.00,2,2,0,2,39049,50000,3682,46498,0,0,0,0,0.00,0.00,0.00,0.00
2014-10-11 16:40:00,2,46913,0,0.00,2,2,0,2,43751,48938,1963,47700,0,0,0,0,0.00,0.00,0.00,0.00
2014-10-11 16:50:00,2,45986,0,0.00,2,2,0,2,34573,50000,5364,48600,0,0,0,0,0.00,0.00,0.00,0.00
2014-10-11 17:00:00,2,47093,0,0.00,2,2,0,2,41861,50000,2772,46996,0,0,0,0,0.00,0.00,0.00,0.00
2014-10-11 17:10:00,2,47392,0,0.00,2,2,0,2,42806,49699,2062,48054,0,0,0,0,0.00,0.00,0.00,0.00
2014-10-11 17:20:00,2,47674,0,0.00,2,2,0,2,40146,50000,2920,48274,0,0,0,0,0.00,0.00,0.00,0.00
2014-10-11 17:30:00,2,44713,0,0.00,2,2,0,2,39329,50000,3136,44078,0,0,0,0,0.00,0.00,0.00,0.00
2014-10-11 17:40:00,2,48561,0,0.00,2,2,0,2,43951,50000,2269,49736,0,0,0,0,0.00,0.00,0.00,0.00
2014-10-11 17:50:00,2,46740,0,0.00,2,2,0,2,43162,49414,1846,47058,0,0,0,0,0.00,0.00,0.00,0.00
2014-10-11 18:00:00,2,45525,0,0.00,2,2,0,2,40838,50000,2973,45932,0,0,0,0,0.00,0.00,0.00,0.00
2014-10-11 18:10:00,2,47923,0,0.00,2,2,0,2,42796,50000,1997,47998,0,0,0,0,0.00,0.00,0.00,0.00
2014-10-11 18:20:00,2,47776,0,0.00,2,2,0,2,43150,50000,2657,49094,0,0,0,0,0.00,0.00,0.00,0.00
2014-10-11 18:30:00,2,44445,0,0.00,2,2,0,2,39860,50000,3571,44314,0,0,0,0,0.00,0.00,0.00,0.00
2014-10-11 18:40:00,2,45145,0,0.00,2,2,0,2,38453,50000,3717,45804,0,0,0,0,0.00,0.00,0.00,0.00
2014-10-11 18:50:00,2,45546,0,0.00,2,2,0,2,38496,50000,3950,47468,0,0,0,0,0.00,0.00,0.00,0.00
2014-10-11 19:00:00,2,41508,0,0.00,2,2,0,2,38174,50000,3277,41342,0,0,0,0,0.00,0.00,0.00,0.00
2014-10-11 19:10:00,2,43366,0,0.00,2,2,0,2,37654,48046,2670,43914,0,0,0,0,0.00,0.00,0.00,0.00
2014-10-11 19:20:00,2,38319,0,0.00,2,2,0,2,33516,44825,3305,38533,0,0,0,0,0.00,0.00,0.00,0.00
2014-10-11 19:30:00,2,40601,0,0.00,2,2,0,2,36674,44436,2456,40495,0,0,0,0,0.00,0.00,0.00,0.00
2014-10-11 19:40:00,2,39235,0,0.00,2,2,0,2,32760,46801,3795,39096,0,0,0,0,0.00,0.00,0.00,0.00
2014-10-11 19:50:00,2,37072,0,0.00,2,2,0,2,32561,39718,2090,37290,0,0,0,0,0.00,0.00,0.00,0.00
2014-10-11 20:00:00,2,41924,0,0.00,2,2,0,2,33297,47126,4119,42762,0,0,0,0,0.00,0.00,0.00,0.00
2014-10-11 20:10:00,2,41404,0,0.00,2,2,0,2,35502,50000,4093,40544,0,0,0,0,0.00,0.00,0.00,0.00
2014-10-11 20:20:00,2,37406,0,0.00,2,2,0,2,34221,41536,2397,36746,0,0,0,0,0.00,0.00,0.00,0.00
2014-10-11 20:30:00,2,33781,0,0.00,2,2,0,2,29962,39017,2674,33387,0,0,0,0,0.00,0.00,0.00,0.00
2014-10-11 20:40:00,2,37814,0,0.00,2,2,0,2,33856,40723,2394,38424,0,0,0,0,0.00,0.00,0.00,0.00
2014-10-11 20:50:00,2,39408,0,0.00,2,2,0,2,37109,44556,2336,38416,0,0,0,0,0.00,0.00,0.00,0.00
2014-10-11 21:00:00,2,45301,0,0.00,2,2,0,2,41187,48765,2344,45801,0,0,0,0,0.00,0.00,0.00,0.00
2014-10-11 21:10:00,2,40123,0,0.00,2,2,0,2,35030,44368,2894,40718,0,0,0,0,0.00,0.00,0.00,0.00
2014-10-11 21:20:00,2,39761,0,0.00,2,2,0,2,31064,45072,3914,40314,0,0,0,0,0.00,0.00,0.00,0.00
2014-10-11 21:30:00,2,42668,0,0.00,2,2,0,2,33387,50000,6632,42806,0,0,0,0,0.00,0.00,0.00,0.00
2014-10-11 21:40:00,2,36260,0,0.00,2,2,0,2,29953,45739,4297,35550,0,0,0,0,0.00,0.00,0.00,0.00
2014-10-11 21:50:00,2,39334,0,0.00,2,2,0,2,30978,45758,4169,40400,0,0,0,0,0.00,0.00,0.00,0.00
2014-10-11 22:00:00,2,42158,0,0.00,2,2,0,2,36059,46460,3033,43322,0,0,0,0,0.00,0.00,0.00,0.00
2014-10-11 22:10:00,2,41607,0,0.00,2,2,0,2,34120,48763,5361,41122,0,0,0,0,0.00,0.00,0.00,0.00
2014-10-11 22:20:00,2,42680,0,0.00,2,2,0,2,36943,49165,3097,42910,0,0,0,0,0.00,0.00,0.00,0.00
2014-10-11 22:30:00,2,42427,0,0.00,2,2,0,2,33314,48161,4811,43446,0,0,0,0,0.00,0.00,0.00,0.00
2014-10-11 22:40:00,2,44937,0,0.00,2,2,0,2,37784,50000,4598,46426,0,0,0,0,0.00,0.00,0.00,0.00
2014-10-11 22:50:00,2,46369,0,0.00,2,2,0,2,42815,50000,2903,45748,0,0,0,0,0.00,0.00,0.00,0.00
2014-10-11 23:00:00,2,43761,0,0.00,2,2,0,2,39368,47222,2513,43689,0,0,0,0,0.00,0.00,0.00,0.00
2014-10-11 23:10:00,2,37356,0,0.00,2,2,0,2,29041,43751,4906,38234,0,0,0,0,0.00,0.00,0.00,0.00
2014-10-11 23:20:00,2,43048,0,0.00,2,2,0,2,36213,49748,4188,43706,0,0,0,0,0.00,0.00,0.00,0.00
2014-10-11 23:30:00,2,40073,0,0.00,2,2,0,2,35574,48864,3586,39544,0,0,0,0,0.00,0.00,0.00,0.00
2014-10-11 23:40:00,2,41123,0,0.00,2,2,0,2,35537,47965,3610,40444,0,0,0,0,0.00,0.00,0.00,0.00
2014-10-11 23:50:00,2,44183,0,0.00,2,2,0,2,39618,49299,3555,43733,0,0,0,0,0.00,0.00,0.00,0.00
